Weather History for Osaka Airport, Japan

Change the Weather History Date:

Tuesday, August 26, 2014

  Actual Average Record
Temperature  
Mean Temperature 81 °F -  
Max Temperature 87 °F 84 °F 98 °F (2002)
Min Temperature 75 °F 69 °F 69 °F (1999)
Cooling Degree Days 16    
Growing Degree Days 31 (Base 50)    
Moisture  
Dew Point 73 °F    
Average Humidity 79    
Maximum Humidity 94    
Minimum Humidity 62    
Precipitation  
Precipitation 0.00 in - - ()
Sea Level Pressure  
Sea Level Pressure 29.75 in    
Wind  
Wind Speed 5 mph ()    
Max Wind Speed 12 mph    
Max Gust Speed -    
Visibility 5.8 miles    
Events Rain , Thunderstorm    
Averages and records for this station are not official NWS values.
T = Trace of Precipitation, MM = Missing Value Source: Averaged Metar Reports

Daily Weather History Graph

Daily Weather History Graph

Search for Another Location

Airport:

Trip Planner

Search our weather history database for the weather conditions in past years. The results will help you decide how hot, cold, wet, or windy it might be!

Date:

Astronomy

Aug. 26, 2014 Rise Set
Actual Time 5:26 AM JST 6:33 PM JST
Civil Twilight 5:00 AM JST 6:59 PM JST
Nautical Twilight 4:29 AM JST 7:30 PM JST
Astronomical Twilight 3:56 AM JST 8:02 PM JST
Moon 5:49 AM JST (8/26) 6:39 PM JST (8/26)
Length of Visible Light 13h 59m
Length of Day
13h 07m
New Moon, 0% of the Moon is Illuminated
Aug 26
New Moon
Sep 2
First Quarter
Sep 9
Full
Sep 16
Last Quarter
Sep 24
New

Hourly Weather History & Observations

Time (JST) Temp. Heat Index Dew Point Humidity Pressure Visibility Wind Dir Wind Speed Gust Speed Precip Events Conditions
5:00 AM 78.8 °F - 71.6 °F 78% 29.74 in 6.2 mi East 5.8 mph - N/A   Mostly Cloudy
5:31 AM 78.8 °F - 71.6 °F 78% 29.74 in 6.2 mi East 6.9 mph - N/A Rain Rain Showers
5:38 AM 77.0 °F - 71.6 °F 83% 29.74 in 6.2 mi East 6.9 mph - N/A Rain Heavy Rain Showers
5:46 AM 77.0 °F - 73.4 °F 89% 29.74 in 2.8 mi ESE 4.6 mph - N/A Rain Heavy Rain Showers
5:50 AM 75.2 °F - 73.4 °F 94% 29.77 in 1.6 mi Variable 4.6 mph - N/A Rain Heavy Rain Showers
6:00 AM 75.2 °F - 73.4 °F 94% 29.77 in 5.0 mi Variable 8.1 mph - N/A Rain Heavy Rain Showers
6:03 AM 75.2 °F - 73.4 °F 94% 29.77 in 6.2 mi Variable 5.8 mph - N/A Rain Heavy Rain Showers
6:07 AM 75.2 °F - 73.4 °F 94% 29.77 in 6.2 mi NE 4.6 mph - N/A Rain Light Rain Showers
6:13 AM 75.2 °F - 73.4 °F 94% 29.77 in 6.2 mi NNE 3.5 mph - N/A Rain , Thunderstorm Light Thunderstorms and Rain
6:32 AM 77.0 °F - 73.4 °F 89% 29.77 in 6.2 mi Variable 2.3 mph - N/A   Partly Cloudy
7:00 AM 77.0 °F - 73.4 °F 89% 29.77 in 6.2 mi NNE 3.5 mph - N/A   Mostly Cloudy
8:00 AM 78.8 °F - 75.2 °F 89% 29.77 in 6.2 mi Variable 1.2 mph - N/A   Mostly Cloudy
9:00 AM 84.2 °F 94.1 °F 77.0 °F 79% 29.77 in 6.2 mi West 3.5 mph - N/A   Scattered Clouds
10:00 AM 84.2 °F 90.9 °F 73.4 °F 70% 29.77 in 6.2 mi SW 8.1 mph - N/A   Mostly Cloudy
11:00 AM 84.2 °F 90.9 °F 73.4 °F 70% 29.77 in 6.2 mi SW 9.2 mph - N/A   Mostly Cloudy
12:00 PM 84.2 °F 90.9 °F 73.4 °F 70% 29.74 in 6.2 mi SW 10.4 mph - N/A   Mostly Cloudy
1:00 PM 87.8 °F 95.6 °F 73.4 °F 62% 29.74 in 6.2 mi WSW 8.1 mph - N/A   Mostly Cloudy
2:00 PM 87.8 °F 95.6 °F 73.4 °F 62% 29.71 in 6.2 mi WSW 11.5 mph - N/A   Mostly Cloudy
3:00 PM 86.0 °F 91.8 °F 71.6 °F 62% 29.71 in 6.2 mi WSW 11.5 mph - N/A   Mostly Cloudy
4:00 PM 86.0 °F 93.4 °F 73.4 °F 66% 29.71 in 6.2 mi WSW 5.8 mph - N/A   Mostly Cloudy
5:00 PM 87.8 °F 95.6 °F 73.4 °F 62% 29.71 in 6.2 mi WSW 5.8 mph - N/A   Mostly Cloudy
6:00 PM 84.2 °F 90.9 °F 73.4 °F 70% 29.74 in 6.2 mi North 9.2 mph - N/A Rain Light Rain Showers
7:00 PM 80.6 °F 86.2 °F 75.2 °F 84% 29.74 in 6.2 mi NW 5.8 mph - N/A   Mostly Cloudy
8:00 PM 80.6 °F 86.2 °F 75.2 °F 84% 29.77 in 6.2 mi NW 6.9 mph - N/A Rain Light Rain Showers